Location: Lake Crest
(37.6062°N, 88.9176°W)
Time: 21:29:33
(UTC+00:00)

Cosmos 371 Rocket - Pass Details

Date: 15 December 2019
Orbit: 684 x 699 km, 74.0° (Epoch: 25 January)

Event Time Altitude Azimuth Distance (km) Brightness Sun altitude
Rises 11:00:51 0° 199° (SSW) 3,042 6.5 -23.4°
Reaches altitude 10° 11:03:09 10° 200° (SSW) 2,133 5.7 -23.0°
Maximum altitude 11:07:58 83° 287° (WNW) 703 3.1 -22.1°
Drops below altitude 10° 11:12:50 10° 16° (NNE) 2,158 5.9 -21.1°
Sets 11:15:10 0° 18° (NNE) 3,081 6.7 -20.7°
